Flag Weather past 2 weeks in Nürburg, Rhineland-Palatinate, Germany

Now
39 °F

Passing clouds.


Feels Like: 39 °F
Forecast: 33 / 40 °F
Wind: 1 mph from North

Location: Nuerburg-Barweiler

Current Time: Nov 28, 2014 at 4:11:51 AM

Latest Report: Nov 28, 2014 at 3:00 AM


Visibility: 13 mi

Pressure: 29.79 "Hg

Humidity: 100%

Dew point: 39 °F

Location of NürburgLocation

Historic Weather in Nürburg — Graph

°F

Nürburg temperature yesterday

Maximum temperature yesterday: 43 °F (at 2:00 PM)
Minimum temperature yesterday: 38 °F (at 12:00 AM)
Average temperature yesterday: 39 °F

Past Weeks' High & Low Weather Summary

 TemperatureHumidityPressure
High57 °F (Nov 23, 2:00 PM)100% (Nov 19, 12:00 AM)30.38 "Hg (Nov 19, 12:00 AM)
Low28 °F (Nov 25, 2:00 AM)70% (Nov 23, 2:00 PM)29.54 "Hg (Nov 16, 3:00 PM)
Average42 °F94%29.96 "Hg
* Reported Nov 13 3:00 AM — Nov 28 3:00 AM, Nürburg, Weather by CustomWeather, © 2014

Note: Actual official high and low records may vary slightly from our data, if they occured in-between our weather recording intervals... More about our weather records

Advertising

Nürburg weather history for previous 24 hours

 ConditionsComfort  
Time TempWeatherWind HumidityBarometerVisibility
3:00 AM
Nov 28
39 °FPassing clouds.1 mph100%29.79 "Hg13 mi
2:00 AM39 °FLow clouds.3 mph99%29.79 "Hg2 mi
1:00 AM39 °FLow clouds.3 mph100%29.78 "Hg0 mi
12:00 AM39 °FLow clouds.2 mph99%29.80 "Hg1 mi
11:00 PM
Nov 27
38 °FLow clouds.2 mph98%29.79 "Hg1 mi
10:00 PM39 °FFog.2 mph98%29.79 "Hg1 mi
9:00 PM38 °FFog.2 mph98%29.78 "Hg3 mi
8:00 PM39 °FLow clouds.3 mph97%29.77 "Hg5 mi
7:00 PM39 °FDrizzle. Low clouds.2 mph97%29.78 "Hg5 mi
6:00 PM39 °FLow clouds.2 mph97%29.76 "Hg4 mi
5:00 PM40 °FDrizzle. Low clouds.2 mph97%29.77 "Hg4 mi
4:00 PM41 °FDrizzle. Low clouds.2 mph95%29.76 "Hg4 mi
3:00 PM42 °FDrizzle. Low clouds.2 mph93%29.76 "Hg6 mi
2:00 PM43 °FLow clouds.2 mph91%29.77 "Hg8 mi
1:00 PM43 °FLow clouds.2 mph93%29.78 "Hg8 mi
12:00 PM41 °FLow clouds.2 mph96%29.80 "Hg6 mi
11:00 AM42 °FLow clouds.1 mph95%29.81 "Hg6 mi
9:00 AM38 °FLow clouds.3 mph98%29.84 "Hg4 mi
8:00 AM39 °FFog.2 mph98%29.83 "Hg4 mi
7:00 AM38 °FLow clouds.2 mph98%29.84 "Hg5 mi
6:00 AM38 °FFog.2 mph98%29.85 "Hg4 mi
5:00 AM38 °FFog.1 mph98%29.85 "Hg2 mi
Weather by CustomWeather, © 2014

See weather overviewHow to use our weather pages